Tracking 30918 objects as of 2-Jul-2025
HD Live streaming from Space Station
objects crossing your sky now

STARLINK-5796

Track STARLINK-5796 now!
10-day predictions
STARLINK-5796 is classified as:


NORAD ID: 55916
Int'l Code: 2023-037C
Perigee: 576.3 km
Apogee: 582.1 km
Inclination: 70.0 °
Period: 96.1 minutes
Semi major axis: 6950 km
RCS: Unknown
Launch date: March 17, 2023
Source: United States (US)
Launch site: AIR FORCE WESTERN TEST RANGE (AFWTR)
Your satellite tracking list
YZ-1 R/B
Track 1 satellite(s)




NASA's NSSDC Master Catalog

Two Line Element Set (TLE):
1 55916U 23037C   25182.80301151  .00000785  00000-0  73554-4 0  9996
2 55916  69.9992 217.1530 0004131 269.6315  90.4371 14.98325742125908
Source of the keplerian elements: AFSPC